Regional Weather Roundup
Issued by NWS

Home | Current Version | Previous Version | Text Only | Print | Product List | Glossary Off
Versions: 1 2 3 4 5 6 7 8 9 10 11 12 13 14 15 16 17 18 19 20 21 22 23 24 25 26 27 28 29 30 31 32 33 34 35 36 37 38 39 40 41 42 43 44 45 46 47 48 49 50

000
ASUS45 KTFX 210819
RWRMT
MONTANA HOURLY WEATHER ROUNDUP
NATIONAL WEATHER SERVICE GREAT FALLS MT
219 AM MDT THU AUG 21 2014

NOTE: "FAIR" INDICATES FEW OR NO CLOUDS BELOW 12000 FEET WITH NO
SIGNIFICANT WEATHER AND/OR OBSTRUCTIONS TO VISIBILITY.

* THESE STATIONS ARE NOT UNDER NWS QUALITY CONTROL. THEY DO NOT
   REPORT WEATHER SUCH AS PRECIPITATION OR FOG.

MTZ001>007-043-210900-
WEST OF THE DIVIDE
CITY           SKY/WX    TMP DP  RH WIND       PRES   REMARKS
KALISPELL      LGT RAIN  57  50  78 N8G20     29.96R
MISSOULA       CLOUDY    59  50  72 SE14      29.95R
BUTTE          MOCLDY    54  46  74 W3        30.07R
MULLAN PASS    MOCLDY    52  45  77 CALM      30.04R
* ESSEX        N/A       51  49  93 N/A        N/A
* LINCOLN      N/A       52  50  93 NE4G13     N/A
* LOOKOUT PASS N/A       53  48  83 VRB1       N/A
* POLSON       N/A       54  53  96 E3G9       N/A
* RONAN APT    MOCLDY    59  54  84 N9         N/A
* SEELEY LAKE  N/A       53  50  90 NW5        N/A
* THOMP F APT  MOCLDY    49  48  96 NE5        N/A
* YAAK HILL    N/A       56  53  90 W1         N/A
$$

MTZ008-052>055-210900-
SOUTHWEST MONTANA
CITY           SKY/WX    TMP DP  RH WIND       PRES   REMARKS
BOZEMAN        CLOUDY    59  54  84 S3        30.00R
DILLON         MOCLDY    52  46  80 S9        30.03S
W YELLOWSTONE  CLOUDY    48  46  93 CALM      30.12F
* THREE FORKS  CLOUDY    59  59 100 N/A        N/A
* BOULDER HILL N/A       50  45  83 N12        N/A
* MONIDA PASS  N/A       48  48 100 SE7        N/A
* RAYNOLDS PAS N/A       49  33  54 S8G13      N/A
* WHITEHALL    N/A       57  54  90 NW5G10     N/A
* WISE RIVER   N/A       50  47  89 S5         N/A
$$

MTZ009>010-012-014-046-048-049-054-210900-
EAST SLOPES AND CENTRAL MONTANA
CITY           SKY/WX    TMP DP  RH WIND       PRES   REMARKS
CUT BANK       MOCLDY    54  50  86 N12       30.03R
GREAT FALLS    CLOUDY    54  52  93 W10       30.01R
HELENA         LGT RAIN  57  50  78 W9        30.02R
MALMSTROM AFB  LGT RAIN  55  54  96 W9        30.03R
* CONRAD       MOCLDY    55  55 100 N/A        N/A
* DEARBORN     N/A       59  48  67 SE3G10     N/A
* EAST GLACIER N/A       51  49  93 NE2        N/A
* MONARCH      N/A       51  49  93 SW2        N/A
* PENDROY      N/A       53  52  96 NW6        N/A
* ROGERS PASS  N/A       48  46  93 NW1        N/A
* SAINT MARY   N/A       51  50  96 N5         N/A
* SWEET GRASS  N/A       52  52 100 N14G22     N/A
* WHITE SULPH  N/A       54  50  86 NW3G15     N/A
$$

MTZ011-013-016-021-035-040-045-047-050-051-210900-
NORTH CENTRAL MONTANA
CITY           SKY/WX    TMP DP  RH WIND       PRES   REMARKS
HAVRE          MOCLDY    59  55  87 NW6       29.93R
LEWISTOWN      CLOUDY    59  52  78 W8        30.00R
* FORT BENTON  CLOUDY    55  54  96 W8        29.98S
* CHESTER      N/A       55  52  90 N/A        N/A
* DENTON       N/A       58  54  87 W6         N/A
* GEYSER       N/A       55  53  93 W9         N/A
* JUDITH GAP   N/A       54  53  96 NW13G20    N/A
* LOMA         N/A       58  55  90 W12        N/A
$$

MTZ017>020-022>027-061-062-210900-
NORTHEAST MONTANA
CITY           SKY/WX    TMP DP  RH WIND       PRES   REMARKS
GLASGOW        CLOUDY    64  61  90 N8        29.84R
GLENDIVE       CLEAR     61  55  81 NW10      29.85R
JORDAN         MOCLDY    63  54  73 W10       29.88R
SIDNEY         CLEAR     61  61 100 W3        29.81R
WOLF POINT     MOCLDY    59  54  84 S5        29.83R
* BEAVER HILL  N/A       60  57  90 N/A        N/A
* CIRCLE       N/A       58  55  90 N/A        N/A
* LINDSAY DVD  N/A       56  53  90 NW6        N/A
* SACO         N/A       62  58  87 NW12G17    N/A
$$

MTZ028>042-056>058-210900-
SOUTHCENTRAL AND SOUTHEAST MONTANA
CITY           SKY/WX    TMP DP  RH WIND       PRES   REMARKS
BAKER          CLEAR     55  54  96 CALM      29.86F
BILLINGS       LGT RAIN  61  55  81 SW12      29.93S
LIVINGSTON     CLOUDY    61  46  58 SW20      29.98R
MILES CITY     PTCLDY    59  50  72 NW8       29.86S
* LAUREL APT   CLOUDY    59  55  87 N/A        N/A
* ROUNDUP APT  CLOUDY    59  54  84 N/A        N/A
* ALZADA       N/A       58  51  78 NW1        N/A
* HYSHAM       N/A       62  51  67 W6         N/A
* LAME DEER    N/A       61  46  58 W6         N/A
* REED POINT   N/A       58  56  93 N/A        N/A
* ROSCOE HILL  N/A       55  47  75 SW6        N/A
$$

REGIONAL REPORTS...DAKOTAS
CITY           SKY/WX    TMP DP  RH WIND       PRES   REMARKS
WILLISTON      FOG       59  57  93 E3        29.80S
DICKINSON      CLEAR     57  55  93 NW5       29.80S
BEACH          N/A       54  54 100 CALM      29.85S
CROSBY         FOG       57  57 100 NW7       29.81S VSB 2 1/2
TIOGA          FOG       59  59 100 NW7       29.82F VSB M1/4
WATFORD CITY   CLEAR     55  55 100 S3        29.78S
BISMARCK       CLOUDY    70  66  87 NW8       29.72F
GRAND FORKS    CLOUDY    72  64  76 SE14G21   29.71F
FARGO          CLOUDY    72  66  81 SE13      29.73S
BUFFALO SD     PTCLDY    61  55  81 NW5       29.79S
RAPID CITY     MOCLDY    66  59  78 N8        29.86R
$$

REGIONAL REPORTS...WYOMING/IDAHO/WASHINGTON
CITY           SKY/WX    TMP DP  RH WIND       PRES   REMARKS
GILLETTE       CLOUDY    61  57  87 NE6       29.94F
SHERIDAN       PTCLDY    63  48  58 CALM      29.95S
CODY           CLOUDY    57  45  64 W6        29.99F
YELLOWSTONE LA CLOUDY    43  43 100 NW3       30.19S
SALMON         CLOUDY    55  54  96 CALM      30.00F
MULLAN PASS    MOCLDY    52  45  77 CALM      30.04S
SAND POINT     CLEAR     54  54 100 CALM      29.95R
SPOKANE        MOCLDY    61  55  81 NW8       29.93R
$$

REGIONAL REPORTS...ALBERTA
CITY           SKY/WX    TMP DP  RH WIND       PRES   REMARKS
CALGARY        MOCLDY    52  48  86 VRB2      30.09R
LETHBRIDGE     LGT RAIN  54  50  86 NW16      30.04S
MEDICINE HAT   LGT RAIN  57  54  90 N8        29.98R
EDMONTON       MOCLDY    45  45 100 NW3       30.09R
WATERTON GATE  N/A       48  46  93 NE5        N/A
CARDSTON       N/A       50  50 100 NW3        N/A
MILK RIVER     N/A       52  52 100 N14G20     N/A
$$

REGIONAL REPORTS...SASKATCHEWAN
CITY           SKY/WX    TMP DP  RH WIND       PRES   REMARKS
SWIFT CURRENT  FOG       59  57  93 W7        29.91S
REGINA         MOCLDY    59  59 100 N7        29.84R
VAL MARIE      N/A       59  57  93 N5         N/A
ASSINIBOIA     N/A       55  54  96 NW6        N/A
CORONACH       N/A       54  54 100 NW5        N/A

$$




USA.gov is the U.S. government's official web portal to all federal, state and local government web resources and services.